This is the latest recevied weather packets stored in our database for station/object KK4WXG. If no packets are shown the sender has not sent any weather packets the latest 10 day(s).
| Time | Temp. | Humidity | Pressure | Rain* | Wind** | Luminosity | Snow |
|---|---|---|---|---|---|---|---|
| 1778031260 | 22.22° C | 37% | 1009.5 hPa | 0 mm | - | 0 W/m² | - |
| 1778030956 | 22.22° C | 37% | 1009.1 hPa | 0 mm | - | 0 W/m² | - |
| 1778030652 | 22.78° C | 36% | 1009.2 hPa | 0 mm | - | 0 W/m² | - |
| 1778030350 | 22.78° C | 35% | 1009.1 hPa | 0 mm | - | 0 W/m² | - |
| 1778030047 | 22.78° C | 35% | 1009.1 hPa | 0 mm | - | 0 W/m² | - |
| 1778029744 | 22.78° C | 35% | 1009.1 hPa | 0 mm | - | 0 W/m² | - |
| 1778029442 | 22.78° C | 34% | 1009.1 hPa | 0 mm | - | 0 W/m² | - |
| 1778029138 | 23.33° C | 34% | 1009 hPa | 0 mm | - | 0 W/m² | - |
| 1778028836 | 23.33° C | 33% | 1008.8 hPa | 0 mm | - | 0 W/m² | - |
| 1778028531 | 23.33° C | 33% | 1009.1 hPa | 0 mm | - | 0 W/m² | - |
| 1778028229 | 23.33° C | 33% | 1008.8 hPa | 0 mm | - | 0 W/m² | - |
| 1778027925 | 23.33° C | 32% | 1008.9 hPa | 0 mm | - | 0 W/m² | - |
| 1778027621 | 23.89° C | 31% | 1008.8 hPa | 0 mm | - | 0 W/m² | - |
| 1778027318 | 23.89° C | 32% | 1008.5 hPa | 0 mm | - | 0 W/m² | - |
| 1778027014 | 23.89° C | 31% | 1008.8 hPa | 0 mm | - | 0 W/m² | - |
| 1778026710 | 23.89° C | 31% | 1008.5 hPa | 0 mm | - | 1 W/m² | - |
| 1778026407 | 23.89° C | 31% | 1008.5 hPa | 0 mm | - | 2 W/m² | - |
| 1778026104 | 24.44° C | 31% | 1008.5 hPa | 0 mm | - | 3 W/m² | - |
| 1778025802 | 24.44° C | 31% | 1008.5 hPa | 0 mm | - | 5 W/m² | - |
| 1778025499 | 24.44° C | 31% | 1008.6 hPa | 0 mm | - | 7 W/m² | - |
| 1778025196 | 24.44° C | 30% | 1008.4 hPa | 0 mm | - | 10 W/m² | - |
| 1778024893 | 25° C | 30% | 1008.4 hPa | 0 mm | - | 17 W/m² | - |
| 1778024591 | 25° C | 31% | 1008.3 hPa | 0 mm | - | 22 W/m² | - |
| 1778024287 | 25° C | 30% | 1008.4 hPa | 0 mm | - | 24 W/m² | - |
| 1778023985 | 25° C | 32% | 1008.3 hPa | 0 mm | - | 26 W/m² | - |
* Rain latest hour (hover to see other rain measurements)
** Current wind speed in m/s (hover to see current wind gust speed)